Flag for U.S.A. Weather past 2 weeks in Chesapeake, Virginia, U.S.A.

Now
37 °F

Clear.


Feels Like: 37 °F
Forecast: 37 / 72 °F
Wind: No wind

Location: Chesapeake Municipal Airport

Current Time: Apr 2, 2015 at 2:49:49 AM

Latest Report: Apr 2, 2015 at 2:15 AM


Visibility: 10 mi

Pressure: 30.31 "Hg

Humidity: 93%

Dew point: 36 °F

Location of ChesapeakeLocation

Historic Weather in Chesapeake — Graph

°F

Chesapeake temperature yesterday

Maximum temperature yesterday: 59 °F (at 12:15 AM)
Minimum temperature yesterday: 37 °F (at 11:15 PM)
Average temperature yesterday: 50 °F

Past Weeks' High & Low Weather Summary

 TemperatureHumidityPressure
High72 °F (Mar 26, 10:35 AM)100% (Mar 20, 5:00 AM)30.41 "Hg (Mar 20, 5:00 AM)
Low28 °F (Mar 29, 3:55 AM)19% (Mar 29, 5:55 PM)29.64 "Hg (Mar 27, 5:15 AM)
Average50 °F65%30.10 "Hg
* Reported Mar 18 1:15 AM — Apr 2 1:55 AM, Chesapeake, Weather by CustomWeather, © 2015

Note: Actual official high and low records may vary slightly from our data, if they occured in-between our weather recording intervals... More about our weather records

Advertising

Chesapeake weather history for previous 24 hours

 ConditionsComfort  
Time TempWeatherWind HumidityBarometerVisibility
1:55 AM
Thu, Apr 2
37 °FClear.No wind93%30.31 "Hg10 mi
1:35 AM37 °FClear.No wind93%30.31 "Hg10 mi
1:15 AM39 °FClear.No wind87%30.31 "Hg10 mi
12:55 AM39 °FClear.No wind87%30.31 "Hg10 mi
12:35 AM39 °FClear.No wind87%30.31 "Hg10 mi
12:15 AM39 °FClear.No wind87%30.31 "Hg10 mi
11:55 PM
Wed, Apr 1
39 °FClear.No wind87%30.31 "Hg10 mi
11:15 PM37 °FClear.No wind93%30.30 "Hg10 mi
10:55 PM41 °FClear.No wind87%30.30 "Hg10 mi
10:35 PM43 °FClear.No wind81%30.30 "Hg10 mi
10:15 PM45 °FClear.No wind71%30.29 "Hg10 mi
9:55 PM45 °FClear.No wind71%30.30 "Hg10 mi
9:35 PM45 °FClear.No wind71%30.29 "Hg10 mi
9:15 PM45 °FClear.No wind71%30.28 "Hg10 mi
8:55 PM46 °FClear.3 mph66%30.27 "Hg10 mi
8:15 PM48 °FSunny.5 mph62%30.25 "Hg10 mi
7:55 PM50 °FSunny.6 mph58%30.24 "Hg10 mi
7:35 PM54 °FSunny.No wind47%30.22 "Hg10 mi
7:15 PM55 °FSunny.3 mph38%30.21 "Hg10 mi
6:55 PM55 °FSunny.No wind36%30.21 "Hg10 mi
6:15 PM57 °FSunny.5 mph33%30.20 "Hg10 mi
5:55 PM57 °FSunny.No wind33%30.19 "Hg10 mi
5:15 PM57 °FSunny.9 mph36%30.17 "Hg10 mi
4:55 PM57 °FSunny.5 mph36%30.17 "Hg10 mi
4:35 PM57 °FSunny.7 mph36%30.17 "Hg10 mi
4:15 PM57 °FSunny.9 mph36%30.16 "Hg10 mi
3:55 PM57 °FSunny.6 mph36%30.17 "Hg10 mi
3:35 PM57 °FSunny.6 mph36%30.16 "Hg10 mi
3:15 PM55 °FSunny.5 mph38%30.16 "Hg10 mi
2:55 PM55 °FSunny.6 mph41%30.16 "Hg10 mi
2:15 PM54 °FSunny.7 mph44%30.16 "Hg10 mi
1:55 PM54 °FSunny.8 mph41%30.17 "Hg10 mi
1:35 PM54 °FSunny.9 mph47%30.16 "Hg10 mi
1:15 PM54 °FSunny.5 mph47%30.17 "Hg10 mi
12:55 PM54 °FSunny.10 mph41%30.17 "Hg10 mi
12:35 PM54 °FSunny.7 mph44%30.16 "Hg10 mi
12:15 PM52 °FSunny.10 mph44%30.16 "Hg10 mi
11:55 AM52 °FSunny.10 mph44%30.16 "Hg10 mi
11:35 AM52 °FSunny.12 mph44%30.15 "Hg10 mi
11:15 AM52 °FSunny.10 mph44%30.15 "Hg10 mi
10:55 AM50 °FSunny.9 mph47%30.14 "Hg10 mi
10:35 AM50 °FSunny.12 mph43%30.13 "Hg10 mi
10:15 AM48 °FSunny.13 mph50%30.12 "Hg10 mi
9:55 AM48 °FSunny.13 mph50%30.11 "Hg10 mi
9:35 AM48 °FSunny.14 mph50%30.11 "Hg10 mi
9:15 AM48 °FSunny.9 mph58%30.10 "Hg10 mi
8:55 AM46 °FSunny.13 mph62%30.10 "Hg10 mi
8:15 AM45 °FScattered clouds.8 mph66%30.09 "Hg10 mi
7:55 AM45 °FScattered clouds.6 mph66%30.08 "Hg10 mi
7:35 AM45 °FClear.6 mph66%30.07 "Hg10 mi
7:15 AM45 °FClear.5 mph66%30.06 "Hg10 mi
6:55 AM45 °FClear.8 mph61%30.03 "Hg10 mi
6:35 AM45 °FClear.10 mph66%30.02 "Hg10 mi
6:15 AM46 °FPassing clouds.9 mph62%30.01 "Hg10 mi
5:55 AM46 °FPassing clouds.9 mph71%30.00 "Hg10 mi
5:35 AM46 °FPassing clouds.7 mph71%29.99 "Hg10 mi
5:15 AM46 °FPassing clouds.10 mph71%29.98 "Hg10 mi
4:55 AM46 °FPassing clouds.12 mph71%29.97 "Hg10 mi
4:15 AM48 °FPassing clouds.10 mph71%29.95 "Hg10 mi
3:55 AM48 °FClear.12 mph71%29.93 "Hg10 mi
3:35 AM48 °FPassing clouds.8 mph71%29.92 "Hg10 mi
3:15 AM50 °FPassing clouds.14 mph71%29.90 "Hg10 mi
2:55 AM52 °FPassing clouds.10 mph72%29.89 "Hg10 mi
2:15 AM55 °FPassing clouds.14 mph63%29.88 "Hg10 mi
Weather by CustomWeather, © 2015

See weather overviewHow to use our weather pages